This is the latest recevied weather packets stored in our database for station/object AA3CS-1. If no packets are shown the sender has not sent any weather packets the latest 10 day(s).
| Time | Temp. | Humidity | Pressure | Rain* | Wind** | Luminosity | Snow |
|---|---|---|---|---|---|---|---|
| 1777502717 | 8.33° C | 92% | 1010 hPa | 0 mm | - | 36 W/m² | - |
| 1777502117 | 8.33° C | 92% | 1010.1 hPa | 0 mm | - | 38 W/m² | - |
| 1777501217 | 8.33° C | 92% | 1009.8 hPa | 0 mm | - | 31 W/m² | - |
| 1777500618 | 8.33° C | 92% | 1009.7 hPa | 0 mm | - | 40 W/m² | - |
| 1777500317 | 8.33° C | 92% | 1009.5 hPa | 0 mm | - | 65 W/m² | - |
| 1777498217 | 8.33° C | 93% | 1009.3 hPa | 0 mm | - | 48 W/m² | - |
| 1777497037 | 8.33° C | 93% | 1009.2 hPa | 0 mm | - | 34 W/m² | - |
| 1777494017 | 9.44° C | 93% | 1008.7 hPa | 0 mm | - | 110 W/m² | - |
| 1777493417 | 9.44° C | 92% | 1008.6 hPa | 0 mm | - | 107 W/m² | - |
| 1777491917 | 10.56° C | 91% | 1008.1 hPa | 0 mm | - | 114 W/m² | - |
| 1777489217 | 11.67° C | 89% | 1008.2 hPa | 0.25 mm | - | 184 W/m² | - |
| 1777488917 | 11.67° C | 89% | 1008.2 hPa | 0.25 mm | - | 192 W/m² | - |
| 1777487417 | 11.11° C | 90% | 1008.2 hPa | 0.51 mm | - | 200 W/m² | - |
| 1777485617 | 11.67° C | 90% | 1008.3 hPa | 0.51 mm | - | 27 W/m² | - |
| 1777483817 | 12.22° C | 90% | 1008.5 hPa | 0.25 mm | - | 107 W/m² | - |
| 1777483517 | 12.22° C | 91% | 1008.3 hPa | 0.25 mm | - | 107 W/m² | - |
| 1777481417 | 12.78° C | 91% | 1008.5 hPa | 1.78 mm | - | 185 W/m² | - |
| 1777479617 | 12.22° C | 91% | 1009 hPa | 2.79 mm | - | 103 W/m² | - |
| 1777478717 | 11.67° C | 92% | 1009.1 hPa | 2.29 mm | - | 62 W/m² | - |
| 1777477217 | 12.22° C | 90% | 1009.5 hPa | 0.51 mm | - | 44 W/m² | - |
| 1777475117 | 12.22° C | 89% | 1009.6 hPa | 0.25 mm | - | 67 W/m² | - |
| 1777474517 | 12.22° C | 89% | 1009.5 hPa | 0.25 mm | - | 250 W/m² | - |
| 1777473617 | 11.67° C | 90% | 1009.8 hPa | 0.25 mm | - | 102 W/m² | - |
| 1777471517 | 12.22° C | 89% | 1010.5 hPa | 1.27 mm | - | 89 W/m² | - |
| 1777470617 | 11.67° C | 90% | 1010.6 hPa | 1.27 mm | - | 86 W/m² | - |
* Rain latest hour (hover to see other rain measurements)
** Current wind speed in m/s (hover to see current wind gust speed)